Location: ??????
(55.5551°N, 37.8790°E)
Time: 08:01:37
(UTC+00:00)

Daily predictions for brighter satellites

Satellite Brightness Start Highest point End
(mag) Time Altitude Azimuth Time Altitude Azimuth Time Altitude Azimuth
USA 229 DEB 3.7 18:34:22 10° SW 18:40:58 78° SE 18:48:00 10° NE
USA 229 3.7 18:34:30 10° SW 18:41:05 77° SE 18:48:06 10° NE
Cosmos 2151 Rocket 3.7 18:39:06 10° N 18:43:38 75° ENE 18:48:10 10° SSE
Intercosmos 24 3.8 18:40:28 10° NNW 18:44:33 87° W 18:48:06 10° S
STARLINK-1084 3.7 18:40:46 10° W 18:44:52 62° S 18:48:58 10° ESE
Okean 1 Rocket 3.8 18:41:22 10° N 18:45:40 42° ENE 18:49:55 10° SE
Cosmos 1844 Rocket 3.4 18:40:13 10° SW 18:45:50 61° NW 18:51:28 10° NNE
STARLINK-1125 4.1 18:43:23 10° W 18:47:21 45° SSW 18:51:19 10° SE
NOSS 3-1 (C) 3.5 18:42:41 10° SW 18:48:25 86° SE 18:55:17 10° NE
SPOT 5 3.2 18:43:16 10° SSE 18:48:27 81° ENE 18:53:49 10° NNW
ATLAS 3B R/B 3.9 18:42:58 10° WNW 18:49:17 43° N 18:55:46 10° ENE
STARLINK-1098 3.7 18:45:46 10° W 18:49:52 62° S 18:53:58 10° ESE
STARLINK-1254 4.5 18:46:25 10° SSW 18:49:59 28° SSE 18:53:35 10° E
NOSS 3-1 (A) 3.4 18:44:23 10° SSW 18:50:01 66° SE 18:56:42 10° NE
STARLINK-1109 4.1 18:48:21 10° W 18:52:17 43° SSW 18:56:14 10° SE
CENTAUR R/B 3.7 18:45:11 10° WNW 18:52:24 55° NNE 19:00:41 10° E
Meteor 1-12 Rocket 4.4 18:48:02 10° NNW 18:53:42 75° W 18:59:21 10° S
STARLINK-1123 3.7 18:50:45 10° W 18:54:50 61° S 18:58:56 10° ESE
STARLINK-1231 4.4 18:51:20 10° SSW 18:54:58 30° SSE 18:58:36 10° E
Cosmos 1437 Rocket 3.5 18:52:39 10° SSE 18:56:06 34° E 18:59:35 10° NNE
SPOT 1/Viking Rocket 4.0 18:52:07 10° S 18:57:14 62° WSW 19:02:23 10° NNW
STARLINK-1091 4.2 18:53:20 10° W 18:57:15 42° SSW 19:01:11 10° SE
STARLINK-1097 3.7 18:55:42 10° W 18:59:47 61° S 19:03:53 10° ESE
STARLINK-1232 4.3 18:56:14 10° SW 18:59:54 31° SSE 19:03:35 10° E
NOSS 2-3 (C) 3.8 18:56:17 10° SW 19:00:42 64° SE 19:06:09 10° NE
SL-4 R/B 2.0 18:58:04 10° NW 19:01:14 46° SW 19:04:11 10° SSE
STARLINK-1072 4.2 18:58:19 10° W 19:02:13 40° SSW 19:06:07 10° SE
Cosmos 1741 Rocket 4.1 18:58:26 10° NNW 19:03:42 88° WSW 19:08:56 10° SSE
Cosmos 1624 Rocket 4.2 18:58:39 10° SSW 19:04:00 84° WNW 19:09:23 10° NNE
STARLINK-1099 3.7 19:00:40 10° W 19:04:45 60° S 19:08:51 10° ESE
STARLINK-1208 4.3 19:01:07 10° SW 19:04:51 33° SSE 19:08:35 10° E
STARLINK-1096 4.3 19:03:19 10° W 19:07:12 39° SSW 19:11:03 10° SE
deb Kosmos-1763 4.3 19:05:10 10° NNW 19:08:45 59° ENE 19:12:12 11° SE
STARLINK-1104 3.7 19:05:38 10° W 19:09:43 59° S 19:13:48 10° ESE
STARLINK-1271 4.2 19:06:02 10° SW 19:09:48 34° SSE 19:13:34 10° E
Meteor 1-4 Rocket 3.5 19:08:30 10° SSW 19:11:51 46° WNW 19:15:14 10° N
STARLINK-1079 4.3 19:08:17 10° W 19:12:08 37° SSW 19:15:53 10° SE
CARTOSAT-1 4.0 19:08:27 10° S 19:12:44 60° WSW 19:17:02 10° NNW
Meteor 2-4 Rocket 3.8 19:08:58 10° SSW 19:14:20 77° WNW 19:19:44 10° NNE
STARLINK-1144 3.7 19:10:36 10° W 19:14:41 59° S 19:18:46 10° ESE
Cosmos 1766 4.1 19:10:56 10° N 19:14:42 41° ENE 19:18:17 11° SE
STARLINK-1154 4.2 19:10:58 10° SW 19:14:46 36° SSE 19:18:35 10° E
Meteor 1-13 Rocket 4.2 19:10:11 10° S 19:15:46 79° E 19:21:32 10° NNE
ERBS 3.4 19:14:13 10° SSW 19:16:51 22° SE 19:19:31 10° E
STARLINK-1116 4.4 19:13:16 10° W 19:17:05 36° SSW 19:20:40 11° SE
Cosmos 1850 Rocket 4.2 19:11:51 10° NNW 19:17:12 71° WSW 19:22:27 10° SSE
STARLINK-1103 3.7 19:15:35 10° W 19:19:39 58° S 19:23:44 10° ESE
STARLINK-1197 4.1 19:15:52 10° SW 19:19:42 37° SSE 19:23:33 10° E
Cosmos 332 Rocket 4.3 19:15:47 10° S 19:20:26 44° ESE 19:25:06 10° NE
SeaSat 1 3.6 19:17:18 10° NE 19:21:23 25° ESE 19:25:14 11° SSE
NOSS 3-2 (A) 4.1 19:14:22 10° NW 19:21:27 76° NE 19:29:37 10° ESE
Aureole 2 Rocket 3.9 19:19:44 12° SE 19:21:28 18° ESE 19:23:37 10° ENE
SL-8 R/B 4.3 19:20:08 10° WSW 19:24:31 36° S 19:28:55 10° ESE
STARLINK-1101 3.7 19:20:33 10° W 19:24:37 57° S 19:28:41 10° ESE
STARLINK-1198 4.1 19:20:47 10° SW 19:24:38 39° SSE 19:28:31 10° E
Cosmos 2084 Rocket 4.1 19:20:35 10° WSW 19:24:53 61° NNW 19:29:16 10° NE
Crew Dragon 2.1 19:23:48 10° WSW 19:25:06 14° SSW 19:25:43 13° S
Okean 3 4.2 19:21:19 10° SSW 19:25:34 57° WNW 19:29:51 10° N
ERS-1 Rocket 3.7 19:21:14 10° S 19:26:05 48° W 19:31:00 10° NNW
Cosmos 1733 3.9 19:25:08 10° N 19:28:50 43° ENE 19:32:02 13° SE
USA 238 DEB 4.0 19:22:19 10° NW 19:29:27 80° NE 19:36:52 10° ESE
USA 238 4.0 19:22:25 10° NW 19:29:32 79° NE 19:36:58 10° ESE
STARLINK-1102 3.7 19:25:32 10° W 19:29:36 55° S 19:33:39 10° ESE
STARLINK-1199 4.0 19:25:44 10° SW 19:29:37 40° SSE 19:33:31 10° E
ALOS 2 4.2 19:26:05 10° ESE 19:29:41 25° ENE 19:33:18 10° N
SL-4 R/B 3.2 19:31:31 10° E 19:32:42 13° ENE 19:33:52 10° NNE
STARLINK-1111 3.8 19:30:31 10° W 19:34:34 54° SSW 19:38:37 10° ESE
STARLINK-1210 4.0 19:30:40 10° SW 19:34:35 42° SSE 19:38:30 10° E
Cosmos 2297 4.4 19:29:47 10° S 19:34:55 36° ESE 19:40:07 10° NE
Cosmos 1461 4.2 19:35:06 13° SSE 19:37:46 23° ESE 19:41:11 10° ENE
STARLINK-1219 3.9 19:35:35 10° SW 19:39:31 43° SSE 19:43:28 10° E
STARLINK-1073 3.8 19:35:29 10° W 19:39:32 53° SSW 19:43:35 10° ESE
ISS -2.2 19:37:55 10° WSW 19:40:30 21° SSW 19:42:11 15° S
Cosmos 2082 Rocket 3.1 19:37:46 10° NW 19:43:07 41° WSW 19:48:19 10° S
STARLINK-1211 3.9 19:40:30 10° SW 19:44:27 45° SSE 19:48:26 10° E
STARLINK-1121 3.8 19:40:26 10° W 19:44:28 51° SSW 19:48:30 10° ESE
Terra 2.6 19:43:00 10° S 19:47:35 47° W 19:52:12 10° NNW
Cosmos 1674 Rocket 3.7 19:44:26 10° SSW 19:48:47 75° WNW 19:53:13 10° N
STARLINK-1245 3.8 19:45:28 10° SW 19:49:26 46° SSE 19:53:26 10° E
STARLINK-1106 3.8 19:45:25 10° W 19:49:26 50° SSW 19:53:28 10° ESE
Cosmos 1833 Rocket 4.3 19:44:58 10° NW 19:49:28 25° WSW 19:53:57 10° SSW
Lacrosse 5 3.1 19:45:33 10° WNW 19:49:50 28° SW 19:53:21 14° S
Cosmos 1331 Rocket 4.5 19:48:44 13° S 19:53:05 42° ESE 19:57:57 10° NE
STARLINK-1234 3.0 19:50:40 10° WSW 19:53:43 52° S 19:56:47 10° E
STARLINK-1233 3.8 19:50:24 10° WSW 19:54:23 48° SSE 19:58:24 10° E
STARLINK-1112 3.9 19:50:25 10° W 19:54:25 49° SSW 19:58:26 10° ESE
STARLINK-1212 3.0 19:52:01 10° WSW 19:55:02 50° S 19:58:04 10° E
STARLINK-1105 3.0 19:52:28 10° WSW 19:55:30 50° S 19:58:30 10° E
Cosmos 1378 Rocket 3.6 19:51:12 10° SSW 19:55:38 82° W 20:00:04 10° N
Spot 4 4.0 19:51:56 14° SSE 19:56:04 71° ENE 20:00:57 10° NNW
STARLINK-1247 3.0 19:53:22 10° WSW 19:56:24 50° S 19:59:26 10° E
STARLINK-1227 3.0 19:53:50 10° WSW 19:56:51 50° S 19:59:52 10° E
Cosmos 1470 3.7 19:53:25 10° N 19:57:06 38° ENE 20:00:04 14° SE
NOSS 3 (A) 4.5 19:54:25 10° SW 19:57:11 87° SSE 20:00:35 10° NE
STARLINK-1226 3.0 19:54:42 10° WSW 19:57:44 50° S 20:00:47 10° E
STARLINK-1215 3.0 19:55:36 10° WSW 19:58:39 50° S 20:01:42 10° E
STARLINK-1209 3.0 19:55:37 10° WSW 19:58:44 53° S 20:01:51 10° E
Nadezhda 4 Rocket 4.0 19:53:07 10° S 19:59:17 86° WNW 20:05:27 10° N
STARLINK-1204 3.8 19:55:22 10° WSW 19:59:22 49° SSE 20:03:23 10° E
STARLINK-1128 3.9 19:55:24 10° W 19:59:23 47° SSW 20:03:13 11° SE
STARLINK-1217 3.0 19:57:23 10° WSW 20:00:26 51° S 20:03:28 10° E
NOSS 2-3 (E) 4.4 19:55:58 10° WSW 20:00:34 67° NNW 20:06:22 10° NE
EO 1 Del DPAF 3.7 19:57:28 10° NNE 20:01:07 43° E 20:03:45 17° SSE
STARLINK-1229 3.0 19:58:17 10° WSW 20:01:20 51° S 20:04:23 10° E
Abrixas rocket 3.4 19:59:28 10° WSW 20:01:41 19° S 20:02:03 19° S
STARLINK-1270 3.0 19:59:10 10° WSW 20:02:13 51° S 20:05:16 10° E
STARLINK-1228 3.1 19:59:09 10° WSW 20:02:27 55° S 20:05:45 10° E
Cosmos 2369 Rocket 3.6 20:00:01 14° SE 20:03:24 23° ESE 20:07:42 10° NE
STARLINK-1189 3.0 20:00:59 10° WSW 20:04:02 51° S 20:07:05 10° E
Cosmos 1805 3.6 20:00:11 10° NNW 20:04:04 60° W 20:07:13 15° S
STARLINK-1238 3.7 20:00:18 10° WSW 20:04:19 51° SSE 20:08:21 10° E
STARLINK-1113 3.9 20:00:22 10° W 20:04:20 46° SSW 20:08:00 12° SE
STARLINK-1188 3.0 20:01:53 10° WSW 20:04:56 51° S 20:08:00 10° E
STARLINK-1235 2.9 20:02:32 10° WSW 20:05:34 52° S 20:08:36 10° E
STARLINK-1187 2.9 20:02:59 10° WSW 20:06:00 52° S 20:09:01 10° E
Cosmos 1975 Rocket 3.4 20:03:33 16° SSE 20:06:59 53° E 20:11:20 10° NNE
STARLINK-1239 4.5 20:03:27 10° SSW 20:07:00 28° SSE 20:10:35 10° E
STARLINK-1191 2.9 20:04:21 10° WSW 20:07:23 51° S 20:10:25 10° E
Cosmos 371 Rocket 3.6 20:02:43 10° SW 20:07:34 69° WNW 20:12:28 10° NNE
STARLINK-1221 2.9 20:05:12 10° WSW 20:08:14 52° S 20:11:17 10° E
Aureole 3 Rocket 4.0 20:03:47 10° N 20:08:39 65° ENE 20:14:26 15° SSE
Cosmos 1066 Rocket 4.2 20:03:23 10° SSW 20:08:48 78° WNW 20:14:12 10° NNE
MTI 4.4 20:05:43 10° N 20:08:49 52° WNW 20:11:52 10° SSW
STARLINK-1222 2.9 20:06:07 10° WSW 20:09:09 52° S 20:12:11 10° E
STARLINK-1201 3.7 20:05:15 10° WSW 20:09:17 52° SSE 20:13:19 10° E
STARLINK-1119 4.0 20:05:21 10° W 20:09:18 44° SSW 20:12:46 13° SE
STARLINK-1214 2.9 20:07:01 10° WSW 20:10:02 52° S 20:13:04 10° E
Cosmos 1378 3.1 20:06:55 14° S 20:10:03 88° ESE 20:13:48 10° NNE
Cosmos 1943 Rocket 3.1 20:06:49 15° SSE 20:10:34 32° ESE 20:15:28 10° NE
STARLINK-67 3.1 20:09:16 10° WSW 20:10:32 22° SW 20:10:32 22° SW
Thor Agena Rocket 3.7 20:06:02 10° NNE 20:11:18 62° ESE 20:15:47 14° S
STARLINK-1240 4.4 20:08:20 10° SSW 20:11:56 29° SSE 20:15:34 10° E
STARLINK-1206 3.7 20:10:12 10° WSW 20:14:15 54° SSE 20:18:18 10° E
STARLINK-1114 4.0 20:10:19 10° W 20:14:15 42° SSW 20:17:33 14° SE
BREEZE-M DEB (TANK) 3.4 20:13:08 10° WSW 20:16:45 36° S 20:20:17 10° ESE
STARLINK-1216 4.4 20:13:13 10° SW 20:16:53 31° SSE 20:20:33 10° E
Cosmos 1452 Rocket 4.0 20:12:27 10° SW 20:17:42 62° WNW 20:22:58 10° NNE
STARLINK-1130 (DARKSAT) 4.1 20:15:17 10° W 20:19:12 41° SSW 20:22:19 15° SE
STARLINK-1205 3.7 20:15:10 10° WSW 20:19:13 55° S 20:23:17 10° E
USA 215 3.6 20:13:35 13° SE 20:19:15 49° SW 20:25:35 10° WNW
Cosmos 2278 Rocket 3.1 20:16:13 10° WSW 20:21:46 52° NW 20:27:21 10° NNE
STARLINK-1237 4.3 20:18:07 10° SW 20:21:50 32° SSE 20:25:33 10° E
Cosmos 1842 3.4 20:19:16 18° S 20:22:01 60° E 20:25:53 10° NNE
Okean 2 3.4 20:19:00 16° S 20:22:14 79° E 20:26:25 10° NNE
STARLINK-1084 4.1 20:20:16 10° W 20:24:09 39° SSW 20:27:06 16° SE
STARLINK-1218 3.6 20:20:06 10° WSW 20:24:10 56° S 20:28:13 10° E
SWAS 4.5 20:19:54 10° NW 20:24:13 75° WSW 20:27:24 18° SSE
STARLINK-1202 4.2 20:23:03 10° SW 20:26:48 34° SSE 20:30:33 10° E
SL-27 R/B 2.5 20:23:12 10° NNW 20:26:51 90° N 20:29:15 20° SSE
NOSS 3-2 (C) 4.0 20:19:49 10° NW 20:27:01 85° SW 20:35:18 10° SE
NOSS 2-2 (D) 4.1 20:25:15 19° S 20:27:11 31° SE 20:30:52 10° ENE
ATLAS 5 CENTAUR R/B 3.5 20:29:26 11° ESE 20:29:26 11° ESE 20:29:39 10° ESE
GEOS 3 Rocket 4.4 20:23:25 10° ESE 20:28:31 54° NNE 20:33:43 10° NW
STARLINK-1254 3.6 20:25:03 10° WSW 20:29:07 57° S 20:33:12 10° E
STARLINK-1098 4.2 20:25:17 10° W 20:29:08 38° SSW 20:31:55 17° SE
Helios 1A 3.6 20:29:54 15° SE 20:33:11 49° ENE 20:37:14 10° N
STARLINK-1123 4.2 20:30:15 10° W 20:34:05 36° SSW 20:36:40 18° SSE
STARLINK-1231 3.6 20:30:03 10° WSW 20:34:07 58° S 20:38:12 10° E
Cosmos 1455 Rocket 3.3 20:31:16 10° NNW 20:35:37 63° W 20:38:45 18° S
STARLINK-1246 4.1 20:32:51 10° SW 20:36:40 37° SSE 20:40:30 10° E
Cosmos 1726 3.1 20:33:11 10° N 20:36:42 39° ENE 20:39:19 16° SE
Cosmos 1092 Rocket 4.1 20:32:24 11° SSW 20:38:18 73° WNW 20:44:29 10° N
STARLINK-1097 4.3 20:35:13 10° W 20:39:01 35° SSW 20:41:26 19° SSE
STARLINK-1232 3.6 20:35:00 10° WSW 20:39:05 59° S 20:43:10 10° E
COSMOS 2487 4.0 20:36:16 10° N 20:39:24 30° NE 20:42:31 10° ESE
ATLAS 3B R/B 3.0 20:34:13 10° NW 20:40:56 69° NNE 20:47:51 10° ESE
NOSS 3-1 (A) 4.4 20:35:18 10° W 20:41:12 54° NNW 20:48:15 10° ENE
STARLINK-1224 4.1 20:37:48 10° SW 20:41:39 38° SSE 20:45:31 10° E
CENTAUR R/B 3.1 20:36:02 10° NW 20:43:47 81° SW 20:52:29 10° SE
STARLINK-1099 4.4 20:40:13 10° W 20:43:58 33° SSW 20:46:13 19° SSE
STARLINK-1208 3.6 20:39:57 10° WSW 20:44:02 60° S 20:48:08 10° E
NOSS 2-2 (E) 3.5 20:42:57 16° SSW 20:45:45 52° SE 20:50:02 10° NE
STARLINK-1225 4.0 20:42:42 10° SW 20:46:35 40° SSE 20:50:29 10° E
Cosmos 1025 Rocket 3.5 20:44:54 19° SSE 20:47:39 48° E 20:51:48 10° NNE
Cosmos 1833 4.2 20:42:29 10° NW 20:48:10 84° NE 20:53:05 14° SE
STARLINK-1104 4.4 20:45:12 10° W 20:48:54 32° SSW 20:51:00 20° SSE
STARLINK-1271 3.6 20:44:55 10° WSW 20:49:01 60° S 20:53:07 10° E
Meteor 2-13 Rocket 4.5 20:45:15 15° S 20:50:31 88° WNW 20:56:44 10° NNE
STARLINK-1230 4.0 20:47:39 10° SW 20:51:34 41° SSE 20:55:28 10° E
ERBS 2.1 20:49:29 10° WSW 20:52:47 79° SSE 20:56:08 10° ENE
STARLINK-1144 4.5 20:50:12 10° W 20:53:51 31° SSW 20:55:47 21° SSE
STARLINK-1154 3.6 20:49:54 10° WSW 20:54:00 61° S 20:58:06 10° E
Cosmos 304 Rocket 4.4 20:49:20 10° SW 20:54:03 56° WNW 20:58:48 10° NNE
NOSS 8 (E) 4.2 20:51:10 10° SW 20:54:14 83° NW 20:57:26 10° NE
Aureole 2 Rocket 3.2 20:51:52 10° SW 20:54:55 43° WNW 20:57:49 10° NNE
STARLINK-1243 3.9 20:52:34 10° SW 20:56:30 43° SSE 21:00:27 10° E
ATLAS CENTAUR R/B 0.9 20:55:47 10° WNW 20:57:37 58° N 21:00:09 10° E
Meteor 2-8 Rocket 4.5 20:51:59 10° NNW 20:58:10 87° WSW 21:02:56 18° S
STARLINK-1197 3.6 20:54:51 10° WSW 20:58:57 61° S 21:03:03 10° E
SeaSat 1 2.6 20:54:25 10° NNE 20:59:21 74° NW 21:04:17 10° SW
Lacrosse 4 Rocket 4.5 20:56:18 10° NNW 20:59:24 18° NNE 21:02:27 10° NE
Cosmos 1271 Rocket 2.8 20:58:18 22° S 21:00:40 63° E 21:04:33 10° NNE
Cosmos 1953 2.3 20:56:39 10° N 21:00:41 77° ENE 21:03:19 21° SSE
Cosmos 1340 Rocket 3.1 20:56:56 10° N 21:00:58 64° ENE 21:03:46 19° SSE
STARLINK-1236 3.9 20:57:31 10° SW 21:01:28 44° SSE 21:05:26 10° E
SL-4 R/B 2.0 21:01:01 22° SW 21:01:38 26° W 21:03:35 10° NW
Meteor 2-10 3.9 20:58:08 10° NNW 21:03:17 89° W 21:06:58 19° SSE
STARLINK-1198 3.6 20:59:48 10° WSW 21:03:54 62° S 21:08:01 10° E
S3M 4.0 20:57:55 10° NNW 21:04:05 81° W 21:08:51 18° S
Meteor 1-16 Rocket 4.3 20:58:52 10° NNW 21:04:34 74° ENE 21:08:52 17° SSE
Cosmos 1503 Rocket 4.0 20:59:37 10° NNW 21:04:56 83° WSW 21:09:02 17° SSE
Cosmos 2297 Rocket 4.1 21:00:10 10° NNW 21:05:06 29° NNE 21:10:01 10° E
ALOS 2 2.9 21:02:48 20° S 21:05:45 57° WSW 21:10:07 10° NNW
Aureole 3 3.5 21:02:14 10° N 21:06:09 56° ENE 21:08:16 20° SSE
Cosmos 1536 Rocket 3.7 21:03:44 20° S 21:06:35 65° E 21:10:55 10° NNE
Cosmos 1707 2.8 21:06:04 22° S 21:08:30 71° E 21:12:24 10° NNE
NOSS 2-2 (C) 3.2 21:05:52 15° SW 21:08:45 64° SE 21:13:03 10° NE
STARLINK-1199 3.6 21:04:47 10° W 21:08:54 62° S 21:13:00 10° E
Cosmos 1758 3.9 21:05:59 10° NNW 21:09:54 50° W 21:12:29 20° SSW
ATLAS 2AS CENTAUR R/B 3.8 21:04:34 17° S 21:09:56 36° ESE 21:16:57 10° NE
Cosmos 1242 Rocket 2.6 21:07:38 20° SSW 21:10:03 78° WNW 21:13:46 10° NNE
Cosmos 2228 3.8 21:06:48 10° N 21:10:56 45° ENE 21:14:14 15° SE
STARLINK-1269 3.8 21:07:22 10° WSW 21:11:22 47° SSE 21:15:22 10° E
Cosmos 1655 Rocket 4.0 21:06:35 18° S 21:11:24 76° E 21:17:40 10° NNE
Cosmos 1544 Rocket 4.4 21:07:22 10° NNW 21:11:26 40° W 21:14:21 17° SSW
NOSS 3-2 (A) 4.5 21:05:20 10° NW 21:12:16 45° SW 21:18:24 17° S
SJ 16-02 4.1 21:10:11 10° N 21:13:04 17° NE 21:15:56 10° E
STARLINK-1210 3.6 21:09:46 10° W 21:13:53 62° S 21:17:59 10° E
Cosmos 968 Rocket 3.7 21:09:18 10° NW 21:14:22 55° WSW 21:17:53 19° S
STARLINK-1200 3.8 21:12:20 10° WSW 21:16:21 49° SSE 21:20:22 10° E
Cosmos 1461 3.1 21:12:10 10° SW 21:16:25 78° NW 21:20:54 10° NE
STARLINK-1219 3.6 21:14:43 10° W 21:18:49 62° S 21:22:56 10° E
Cosmos 2297 4.3 21:13:18 10° SW 21:18:54 58° NW 21:24:36 10° NNE
Cosmos 1867 3.5 21:13:27 10° NW 21:18:56 76° SW 21:24:02 12° SE
USA 238 DEB 4.4 21:13:32 10° NW 21:20:06 40° WSW 21:25:11 17° S
USA 238 4.4 21:13:37 10° NW 21:20:12 40° WSW 21:25:18 17° S
Cosmos 1354 Rocket 4.1 21:15:06 10° NNW 21:20:23 72° WSW 21:24:20 18° SSE
STARLINK-1192 3.7 21:17:17 10° WSW 21:21:19 50° SSE 21:25:21 10° E
STARLINK-1211 3.6 21:19:40 10° W 21:23:47 62° S 21:27:53 10° ESE
STARLINK-1244 3.7 21:22:14 10° WSW 21:26:16 52° SSE 21:30:18 10° E
Cosmos 292 Rocket 3.8 21:23:47 18° SSW 21:27:20 76° ESE 21:32:13 10° NNE
Cosmos 1674 3.6 21:25:54 19° SSE 21:28:07 36° E 21:31:38 10° NNE
STARLINK-1245 3.6 21:24:40 10° W 21:28:46 62° S 21:32:52 10° ESE
Cosmos 2292 Rocket 3.4 21:26:36 21° S 21:29:17 66° E 21:32:42 10° NNE
STARLINK-1234 3.3 21:26:21 10° W 21:29:20 40° SSW 21:31:56 12° SE
STARLINK-1212 3.1 21:27:39 10° W 21:30:37 43° SSW 21:33:36 10° ESE
STARLINK-1105 3.1 21:28:05 10° W 21:31:04 43° SSW 21:34:02 10° ESE
STARLINK-1138 3.7 21:27:10 10° WSW 21:31:13 53° SSE 21:35:16 10° E
STARLINK-1247 3.1 21:29:00 10° W 21:31:59 43° SSW 21:34:59 10° ESE
SL-4 R/B 4.1 21:31:20 15° SSE 21:32:04 16° SE 21:34:55 10° ESE
STARLINK-1227 3.1 21:29:27 10° W 21:32:26 43° SSW 21:35:24 10° ESE
Cosmos 1470 4.2 21:29:44 10° NNW 21:33:02 26° W 21:35:25 15° SW
STARLINK-1226 3.1 21:30:20 10° W 21:33:19 43° SSW 21:36:18 10° ESE
STARLINK-1233 3.6 21:29:37 10° W 21:33:44 61° S 21:37:50 10° ESE
STARLINK-1215 3.2 21:31:15 10° W 21:34:14 43° SSW 21:37:14 10° ESE
STARLINK-1209 3.4 21:31:37 10° W 21:34:36 38° SSW 21:37:03 14° SE
STARLINK-1217 3.2 21:33:02 10° W 21:36:01 42° SSW 21:39:00 10° ESE
STARLINK-1143 3.7 21:32:08 10° WSW 21:36:11 54° SSE 21:40:15 10° E
STARLINK-1203 3.7 21:32:31 10° WSW 21:36:38 55° SSE 21:40:46 10° E
STARLINK-1229 3.2 21:33:56 10° W 21:36:55 42° SSW 21:39:54 10° ESE
STARLINK-1270 3.2 21:34:49 10° W 21:37:48 42° SSW 21:40:47 10° ESE
Cosmos 1606 Rocket 3.5 21:33:49 10° N 21:38:10 80° ENE 21:41:16 19° SSE
STARLINK-1204 3.6 21:34:37 10° W 21:38:42 61° S 21:42:48 10° ESE
STARLINK-1228 3.5 21:35:47 10° W 21:38:56 39° SSW 21:42:06 10° SE
STARLINK-1189 3.2 21:36:38 10° W 21:39:36 41° SSW 21:42:35 10° ESE
Cosmos 1302 Rocket 4.4 21:34:57 11° SW 21:40:00 63° WNW 21:45:18 10° NNE
STARLINK-1188 3.2 21:37:33 10° W 21:40:31 41° SSW 21:43:29 10° ESE
CZ-2D R/B 4.3 21:38:16 10° NE 21:41:03 14° E 21:43:48 10° ESE
STARLINK-1235 3.3 21:38:13 10° W 21:41:07 37° SSW 21:43:24 14° SE
STARLINK-1241 3.7 21:37:05 10° WSW 21:41:09 56° S 21:45:13 10° E
Cosmos 2227 Rocket 3.7 21:35:53 10° NNW 21:41:11 38° NE 21:46:27 10° ESE
STARLINK-1187 3.3 21:38:39 10° W 21:41:34 39° SSW 21:44:29 10° SE
STARLINK-1191 3.2 21:40:01 10° W 21:42:58 40° SSW 21:45:54 10° SE
STARLINK-1238 3.6 21:39:34 10° W 21:43:40 60° S 21:47:46 10° ESE
STARLINK-1221 3.2 21:40:52 10° W 21:43:48 40° SSW 21:46:45 10° SE
STARLINK-1222 3.2 21:41:47 10° W 21:44:43 39° SSW 21:47:39 10° SE
STARLINK-1214 3.3 21:42:41 10° W 21:45:37 39° SSW 21:48:32 10° SE
Cosmos 2098 Rocket 4.5 21:40:25 17° S 21:45:51 71° E 21:53:18 10° NNE
STARLINK-1239 3.6 21:42:04 10° WSW 21:46:08 57° S 21:50:12 10° E
Cosmos 2369 Rocket 2.2 21:41:46 14° SW 21:46:48 86° NW 21:52:30 10° NE
Resurs 1-4 Rocket 4.2 21:44:46 10° NE 21:48:05 17° E 21:51:24 10° SE
STARLINK-1201 3.6 21:44:32 10° W 21:48:38 59° S 21:52:44 10° ESE
ATLAS CENTAUR R/B 3.0 21:46:57 16° SSE 21:48:53 22° ESE 21:52:06 10° ENE
Cosmos 1908 3.2 21:45:24 10° NNW 21:49:14 77° W 21:51:39 21° S
STARLINK-1240 3.6 21:47:01 10° WSW 21:51:05 58° S 21:55:10 10° E
STARLINK-1206 3.6 21:49:31 10° W 21:53:36 58° S 21:57:41 10° ESE
Cosmos 1943 Rocket 2.5 21:48:30 10° SW 21:54:01 63° NW 21:59:38 10° NNE
STARLINK-1216 3.6 21:51:58 10° WSW 21:56:03 59° S 22:00:08 10° E
Timation 2 Rocket 4.0 21:49:57 10° NW 21:56:28 90° NE 22:02:39 10° SE
STARLINK-1205 3.6 21:54:30 10° W 21:58:34 57° S 22:02:39 10° ESE
Cosmos 2266 Rocket 4.1 21:55:27 17° SSW 22:00:20 72° WNW 22:06:25 10° N
STARLINK-1237 3.6 21:56:56 10° WSW 22:01:01 60° S 22:05:07 10° E
PSLV R/B 3.9 21:57:14 10° NNE 22:01:53 66° ESE 22:05:05 19° S
Meteor 1-29 3.7 21:59:18 10° NNE 22:02:34 42° E 22:04:36 19° SSE
STARLINK-1218 3.6 21:59:27 10° W 22:03:31 56° S 22:07:35 10° ESE
SL-16 R/B 3.3 21:59:02 10° SE 22:04:56 51° ENE 22:10:53 10° NNW
STARLINK-1202 3.6 22:01:55 10° WSW 22:06:00 60° S 22:10:06 10° E
GEOS 3 Rocket 3.8 22:01:31 10° SSE 22:06:35 57° SW 22:11:50 10° NW
RESURS DK-1 4.1 22:05:42 13° SSE 22:08:08 21° ESE 22:11:18 10° ENE
STARLINK-1254 3.7 22:04:26 10° W 22:08:29 55° SSW 22:12:33 10° ESE
KORONAS-FOTON 3.7 22:06:11 21° S 22:08:39 87° E 22:12:31 10° NNE
Helios 1A 4.4 22:06:30 15° SW 22:08:58 25° W 22:12:29 10° NW
Meteor 2-5 Rocket 3.9 22:04:52 17° S 22:09:09 64° E 22:14:42 10° NNE
Landsat 4 4.2 22:06:32 10° N 22:10:10 51° WNW 22:12:50 17° SW
Cosmos 1992 Rocket 4.1 22:06:47 15° SSW 22:11:04 78° WNW 22:16:20 10° NNE
Cosmos 1356 Rocket 4.3 22:07:12 10° N 22:11:13 47° ENE 22:15:16 10° SE
CZ-4 R/B 3.8 22:06:26 10° NNE 22:11:20 84° ESE 22:14:54 18° SSW
Cosmos 1726 3.7 22:08:44 10° NW 22:11:44 23° W 22:13:48 15° SW
STARLINK-1231 3.7 22:09:26 10° W 22:13:29 54° SSW 22:17:31 10° ESE
COSMOS 2487 3.4 22:11:21 10° NW 22:14:27 31° WSW 22:16:04 21° SSW
STARLINK-1246 3.6 22:11:49 10° WSW 22:15:55 61° S 22:20:01 10° E
NOSS 2-2 (D) 4.2 22:13:48 10° WSW 22:17:30 53° NNW 22:22:06 10° NE
Helios 1B rocket 2.4 22:14:14 10° NNE 22:18:23 88° WNW 22:21:21 19° SSW
STARLINK-1232 3.7 22:14:23 10° W 22:18:26 53° SSW 22:22:28 10° ESE
APEX 4.3 22:12:34 12° SW 22:18:34 80° NW 22:23:51 10° NE
CZ-4C R/B 4.3 22:15:24 10° SE 22:19:30 51° ENE 22:23:48 10° N
STARLINK-1224 3.6 22:16:49 10° WSW 22:20:55 62° S 22:25:00 10° E
Cosmos 1892 Rocket 3.6 22:17:57 18° S 22:21:10 74° E 22:25:35 10° NNE
Cosmos 2263 4.4 22:17:23 12° SW 22:22:38 70° NW 22:28:16 10° NNE
Spot 1 4.3 22:19:14 14° SSE 22:23:15 84° WSW 22:28:15 10° NNW
STARLINK-1208 3.7 22:19:21 10° W 22:23:23 51° SSW 22:27:25 10° ESE
Cosmos 1437 4.1 22:22:21 14° SSE 22:24:20 28° E 22:26:59 10° NE
STARLINK-1225 3.6 22:21:45 10° WSW 22:25:51 62° S 22:29:57 10° E
Cosmos 1726 Rocket 4.0 22:21:43 10° NNW 22:25:53 47° W 22:28:51 18° SSW
STARLINK-1271 3.8 22:24:20 10° W 22:28:21 50° SSW 22:32:22 10° ESE
ERBS 2.7 22:25:53 10° W 22:29:12 66° N 22:32:32 10° E
BREEZE-M DEB (TANK) 2.8 22:25:25 10° WSW 22:30:03 31° SSW 22:32:17 10° SE
STARLINK-1230 3.6 22:26:45 10° W 22:30:51 62° S 22:34:57 10° E
Cosmos 1300 2.6 22:27:25 10° NNW 22:31:16 77° W 22:34:10 17° S
NOSS 3-4 (A) 3.5 22:26:18 14° SW 22:31:29 68° SE 22:37:57 10° NE
ATLAS 3B R/B 3.0 22:25:06 10° NW 22:31:29 46° SW 22:38:03 10° SSE
NOSS 3-4 (C) 3.5 22:26:25 14° SSW 22:31:35 68° SE 22:38:04 10° NE
IRAS Rocket 4.3 22:27:08 14° S 22:31:59 67° WSW 22:37:32 10° NNW
STARLINK-1154 3.8 22:29:20 10° W 22:33:20 48° SSW 22:37:20 10° ESE
CENTAUR R/B 4.0 22:27:07 10° WNW 22:33:56 31° WSW 22:40:06 14° SSW
Cosmos 2219 3.3 22:30:00 10° NW 22:35:44 86° NE 22:41:24 10° SE
STARLINK-1243 3.6 22:31:43 10° W 22:35:49 62° S 22:39:55 10° E
Cosmos 1656 Rocket 3.8 22:31:22 13° SW 22:36:29 73° NW 22:42:06 10° NNE
COSMOS 2455 3.0 22:32:11 15° SSW 22:37:08 67° SE 22:43:08 10° NE
SL-14 R/B 3.3 22:34:45 18° S 22:37:36 75° E 22:41:29 10° NNE
STARLINK-1197 3.8 22:34:17 10° W 22:38:17 47° SSW 22:42:16 10° SE
Lacrosse 4 Rocket 3.2 22:35:08 10° NNW 22:39:16 37° NE 22:43:17 10° ESE
Cosmos 1777 Rocket 4.5 22:35:31 10° NW 22:40:29 45° WSW 22:44:35 15° S
STARLINK-1236 3.6 22:36:41 10° W 22:40:47 62° S 22:44:53 10° ESE
Cosmos 1626 2.1 22:38:08 18° S 22:40:50 84° E 22:44:34 10° NNE
STARLINK-1198 3.9 22:39:15 10° W 22:43:14 45° SSW 22:47:11 10° SE
DELTA 2 DEB (DPAF) 4.2 22:43:46 13° S 22:47:41 69° WSW 22:52:10 10° NNW
STARLINK-1199 3.9 22:44:15 10° W 22:48:12 44° SSW 22:52:08 10° SE
Cosmos 2228 4.4 22:44:44 10° NNW 22:48:17 26° W 22:51:04 14° SW
Cosmos 2297 Rocket 2.2 22:44:11 10° NW 22:49:54 89° ENE 22:55:34 10° SSE
STARLINK-1269 3.6 22:46:36 10° W 22:50:42 61° S 22:54:47 10° ESE
BREEZE M DEB (TANK) 3.4 22:50:59 18° S 22:50:59 18° S 22:52:59 10° SE
Cosmos 2058 Rocket 3.7 22:47:58 10° NNW 22:52:08 41° W 22:55:25 15° SSW
SJ 16-02 1.7 22:48:04 10° NNW 22:52:31 68° ENE 22:56:56 10° SE
Starlink 7 placeholder 3.6 22:53:19 18° SSE 22:53:19 18° SSE 22:54:36 10° ESE
STARLINK-1210 3.9 22:49:15 10° W 22:53:10 42° SSW 22:57:05 10° SE
Cosmos 2082 4.3 22:48:37 10° NNW 22:54:15 60° NE 22:59:51 10° SE
STARLINK-1200 3.6 22:51:35 10° W 22:55:41 61° S 22:59:47 10° ESE
CZ-4C R/B 4.3 22:55:13 10° SE 22:57:39 13° ESE 23:00:14 10° ENE
STARLINK-1219 4.0 22:54:12 10° W 22:58:06 41° SSW 23:02:00 10° SE
ATLAS 2AS CENTAUR R/B 3.1 22:52:20 10° SW 23:00:25 89° NNW 23:08:18 10° NE
STARLINK-1192 3.6 22:56:34 10° W 23:00:39 60° S 23:04:45 10° ESE
Cosmos 921 Rocket 3.1 22:58:33 15° SSW 23:02:03 70° ESE 23:06:23 10° NNE
STARLINK-1211 4.0 22:59:10 10° W 23:03:03 39° SSW 23:06:55 10° SE
Cosmos 2263 Rocket 4.4 22:58:34 10° NNW 23:03:32 30° NNE 23:08:26 10° E
Cosmos 1674 4.2 23:00:43 11° WSW 23:03:45 26° WNW 23:07:00 10° N
STARLINK-1244 3.6 23:01:32 10° W 23:05:37 59° S 23:09:42 10° ESE
STARLINK-1212 4.4 23:03:47 10° WSW 23:05:57 18° SSW 23:06:50 16° S
STARLINK-1105 4.4 23:04:14 10° WSW 23:06:23 17° SSW 23:07:09 16° SSW
Meteor 2-16 Rocket 4.5 23:01:00 13° SSW 23:06:34 82° WNW 23:12:45 10° N
STARLINK-1247 4.4 23:05:08 10° WSW 23:07:18 17° SSW 23:08:17 15° S
STARLINK-1227 4.4 23:05:37 10° WSW 23:07:44 17° SSW 23:08:28 16° SSW
STARLINK-1245 4.1 23:04:10 10° W 23:08:01 37° SSW 23:11:52 10° SE
STARLINK-1226 4.4 23:06:29 10° WSW 23:08:37 17° SSW 23:09:33 15° S
STARLINK-1215 4.4 23:07:25 10° WSW 23:09:32 17° SSW 23:10:28 15° S
Okean 1-7 Rocket 4.1 23:06:09 14° SSW 23:09:54 51° WNW 23:14:20 10° N
STARLINK-1138 3.6 23:06:29 10° W 23:10:35 59° S 23:14:39 10° ESE
SL-4 R/B 3.0 23:06:52 12° SW 23:10:56 38° SSE 23:15:17 10° E
STARLINK-1217 4.5 23:09:14 10° WSW 23:11:19 17° SSW 23:12:10 15° SSW
STARLINK-1229 4.5 23:10:08 10° WSW 23:12:12 16° SSW 23:13:04 15° SSW
STARLINK-1233 4.1 23:09:09 10° W 23:12:58 36° SSW 23:16:47 10° SE
Cosmos 1626 Rocket 3.5 23:09:09 13° S 23:13:02 87° E 23:17:24 10° NNE
STARLINK-1270 4.5 23:11:03 10° WSW 23:13:05 16° SSW 23:13:58 15° SSW
Cosmos 1455 2.4 23:09:25 10° N 23:13:11 70° ENE 23:16:55 10° SSE
SL-19 R/B 4.3 23:09:53 10° NNE 23:15:12 71° WNW 23:20:26 12° SSW
STARLINK-52 4.5 23:13:28 15° SSW 23:15:13 22° SSE 23:17:47 10° E
STARLINK-1143 3.7 23:11:28 10° W 23:15:33 58° S 23:19:38 10° ESE
STARLINK-1203 3.7 23:12:05 10° W 23:16:13 58° S 23:20:21 10° ESE
STARLINK-1204 4.2 23:14:09 10° W 23:17:56 34° SSW 23:21:42 10° SE
Nadezhda 1 Rocket 4.2 23:13:29 10° NNW 23:19:28 56° W 23:25:31 10° SSW
ADEOS II 3.5 23:14:54 10° NNE 23:19:39 33° E 23:24:23 10° SSE
STARLINK-1241 3.7 23:16:26 10° W 23:20:31 57° S 23:24:35 10° ESE
CZ-2D R/B 2.3 23:16:49 10° NNE 23:22:07 71° ESE 23:27:20 10° S
Meteor 2-1 Rocket 4.3 23:17:09 10° NNW 23:22:37 64° W 23:28:04 10° S
STARLINK-1238 4.3 23:19:08 10° W 23:22:52 33° SSW 23:26:37 10° SE
Cosmos 220 Rocket 4.1 23:19:30 12° SSW 23:23:29 78° ESE 23:27:57 10° NNE
ARIANE 5 R/B 4.4 23:19:49 10° NE 23:23:54 24° E 23:27:56 10° SE
STARLINK-1239 3.7 23:21:25 10° W 23:25:29 55° S 23:29:34 10° ESE
Cosmos 2227 Rocket 2.2 23:19:58 10° NW 23:25:37 65° WSW 23:31:14 10° SSE
ATLAS CENTAUR R/B 1.4 23:23:07 10° SW 23:27:26 80° NW 23:31:30 10° NE
STARLINK-1201 4.3 23:24:07 10° W 23:27:49 32° SSW 23:31:30 10° SE
Resurs 1-4 Rocket 2.2 23:23:27 10° NNE 23:28:46 81° ESE 23:34:05 10° SSW
Cosmos 1812 Rocket 3.8 23:25:16 10° NNW 23:29:39 54° W 23:34:00 10° S
Cosmos 1898 Rocket 3.5 23:25:00 10° NNW 23:30:21 72° WSW 23:35:39 10° SSE
STARLINK-1240 3.7 23:26:23 10° W 23:30:27 54° SSW 23:34:31 10° ESE
USA 81 4.1 23:25:20 10° S 23:30:38 85° E 23:35:57 10° N
Cosmos 2369 Rocket 3.9 23:26:43 10° W 23:31:37 29° NNW 23:36:30 10° NNE
Cosmos 1697 Rocket 4.2 23:27:20 10° SSE 23:32:09 29° ESE 23:36:58 10° NE
STARLINK-1206 4.4 23:29:07 10° W 23:32:46 30° SSW 23:36:25 10° SSE
Cosmos 1400 Rocket 4.0 23:30:53 10° N 23:34:52 47° ENE 23:38:52 10° SE
STARLINK-1216 3.7 23:31:21 10° W 23:35:24 53° SSW 23:39:27 10° ESE
Meteor 1-24 Rocket 4.3 23:30:23 10° SW 23:35:25 44° WNW 23:40:38 10° N
STARLINK-1205 4.4 23:34:07 10° W 23:37:42 29° SSW 23:41:19 10° SSE
Cosmos 1943 Rocket 4.2 23:34:24 10° W 23:38:52 24° NNW 23:43:23 10° NNE
Cosmos 1937 Rocket 3.5 23:33:56 10° NNW 23:39:11 80° WSW 23:44:27 10° SSE
ATLAS CENTAUR R/B 2.8 23:37:15 10° W 23:39:35 23° SSW 23:43:40 10° SSE
STARLINK-1237 3.8 23:36:20 10° W 23:40:22 52° SSW 23:44:25 10° ESE
NPP 3.7 23:36:09 10° NNE 23:41:36 86° ESE 23:47:00 10° SSW
UNK 4.4 23:41:01 10° SSW 23:45:19 37° W 23:49:37 10° NNW
STARLINK-1202 3.8 23:41:19 10° W 23:45:21 50° SSW 23:49:23 10° ESE
RESURS DK-1 2.6 23:41:40 10° SW 23:45:47 66° NW 23:49:56 10° NNE
STARLINK-60 3.4 23:42:56 10° WSW 23:45:59 42° SSE 23:49:04 10° E
Cosmos 1825 Rocket 3.9 23:41:51 10° S 23:46:07 63° E 23:50:25 10° NNE
Cosmos 1602 Rocket 3.7 23:41:59 10° SSW 23:46:16 60° WNW 23:50:34 10° N
Cosmos 1703 3.8 23:42:41 10° S 23:46:35 58° E 23:50:29 10° NNE
Cosmos 1174 4.4 23:44:43 10° WSW 23:48:02 46° NW 23:52:03 10° NE
SL-16 R/B 3.0 23:42:55 10° SSW 23:48:42 42° W 23:54:34 10° NNW
Cosmos-2242 3.0 23:45:42 10° NNW 23:49:59 71° W 23:54:13 10° S
Cosmos 2221 4.2 23:47:48 10° N 23:51:49 36° ENE 23:55:50 10° SE
AQUA 3.9 23:47:29 10° NNE 23:52:18 90° ESE 23:57:04 10° SSW
Cosmos 192 4.4 23:47:38 10° SSW 23:52:36 82° ESE 23:57:36 10° NNE
Cosmos 1656 4.0 23:47:25 10° SSW 23:53:01 62° ESE 23:58:33 10° NE
BREEZE-M R/B 3.9 23:50:40 10° SW 23:53:54 22° S 23:56:11 10° ESE
Meteor 2-10 Rocket 3.9 23:48:51 10° NNW 23:54:04 49° W 23:59:00 10° S
GP-B 3.2 23:50:23 10° N 23:54:51 74° W 23:59:17 10° S
STARLINK-1246 3.9 23:51:15 10° W 23:55:15 47° SSW 23:59:14 10° ESE
Cosmos 1437 4.3 23:54:52 10° WSW 23:57:19 22° WNW 23:59:46 10° N
